Weather History for 71799 - October, 2012

Change the Weather History Date:

Saturday, October 6, 2012

  Actual Average Record
Temperature  
Mean Temperature 54 °F -  
Max Temperature 69 °F 55 °F - ()
Min Temperature 39 °F 41 °F - ()
Degree Days  
Heating Degree Days 11    
Growing Degree Days 4 (Base 50)    
Moisture  
Dew Point 37 °F    
Average Humidity 57    
Maximum Humidity 81    
Minimum Humidity 20    
Precipitation  
Precipitation 0.00 in 0.11 in - ()
Sea Level Pressure  
Sea Level Pressure 30.22 in    
Wind  
Wind Speed 2 mph ()    
Max Wind Speed 8 mph    
Max Gust Speed -    
T = Trace of Precipitation, MM = Missing Value Source: Averaged Metar Reports

Daily Weather History Graph

Daily Weather History Graph

Search for Another Location

Airport or City:

Trip Planner

Search our weather history database for the weather conditions in past years. The results will help you decide how hot, cold, wet, or windy it might be!

Date:

Astronomy

Oct. 06, 2012 Rise Set
Actual Time 7:21 AM PDT 6:41 PM PDT
Civil Twilight 6:49 AM PDT 7:12 PM PDT
Nautical Twilight 6:13 AM PDT 7:48 PM PDT
Astronomical Twilight 5:36 AM PDT 8:25 PM PDT
Moon 10:39 PM PDT (10/6) 1:42 PM PDT (10/6)
Length of Visible Light 12h 22m
Length of Day
11h 19m
Waning Gibbous, 64% of the Moon is Illuminated
Oct 6
Waning Gibbous
Oct 8
Last Quarter
Oct 15
New
Oct 21
First Quarter
Oct 29
Full

Hourly Weather History & Observations

Time (PDT) Temp. Windchill Dew Point Humidity Pressure Visibility Wind Dir Wind Speed Gust Speed Precip Events Conditions
12:00 AM 44.6 °F - 35.6 °F 71% 30.26 in 30.0 mi Calm Calm - N/A   Clear
1:00 AM 42.8 °F - 33.8 °F 70% 30.27 in 30.0 mi Calm Calm - N/A   Clear
2:00 AM 42.8 °F 39.3 °F 33.8 °F 70% 30.27 in 30.0 mi West 5.8 mph - N/A   Clear
3:00 AM 42.8 °F 39.3 °F 37.4 °F 81% 30.27 in 30.0 mi West 5.8 mph - N/A   Clear
4:00 AM 46.4 °F 43.5 °F 37.4 °F 71% 30.26 in 30.0 mi WSW 5.8 mph - N/A   Clear
5:00 AM 44 °F - 37 °F 70% 30.26 in 28 mi West 4.6 mph - -  
5:00 AM 44.6 °F 43.1 °F 37.4 °F 76% 30.26 in 30.0 mi West 3.5 mph - N/A   Clear
6:00 AM 42.8 °F - 37.4 °F 81% 30.27 in 30.0 mi Calm Calm - N/A   Clear
7:00 AM 42.8 °F 39.3 °F 35.6 °F 76% 30.27 in 30.0 mi WNW 5.8 mph - N/A   Partly Cloudy
8:00 AM 44.6 °F - 35.6 °F 71% 30.27 in 30.0 mi Calm Calm - N/A   Partly Cloudy
9:00 AM 51.8 °F - 41.0 °F 67% 30.27 in 30.0 mi Calm Calm - N/A   Partly Cloudy
10:00 AM 55.4 °F - 39.2 °F 54% 30.28 in 30.0 mi Calm Calm - N/A   Partly Cloudy
11:00 AM 60 °F - 37 °F 30% 30.27 in 28 mi WNW 5.8 mph - -   Clear
11:00 AM 60.8 °F - 37.4 °F 42% 30.27 in 30.0 mi WNW 5.8 mph - N/A   Partly Cloudy
12:00 PM 64.4 °F - 39.2 °F 40% 30.26 in 30.0 mi Calm Calm - N/A   Partly Cloudy
1:00 PM 66.2 °F - 35.6 °F 32% 30.25 in 30.0 mi NE 8.1 mph - N/A   Partly Cloudy
2:00 PM 66.2 °F - 35.6 °F 32% 30.22 in 30.0 mi NE 4.6 mph - N/A   Partly Cloudy
3:00 PM 68.0 °F - 37.4 °F 33% 30.21 in 30.0 mi Calm Calm - N/A   Partly Cloudy
4:00 PM 68.0 °F - 37.4 °F 33% 30.19 in 30.0 mi Calm Calm - N/A   Partly Cloudy
5:00 PM 69 °F - 37 °F 20% 30.17 in 28 mi NE 3.5 mph - -   Clear
5:00 PM 68.0 °F - 37.4 °F 33% 30.17 in 30.0 mi NE 3.5 mph - N/A   Partly Cloudy
6:00 PM 64.4 °F - 39.2 °F 40% 30.16 in 30.0 mi Calm Calm - N/A   Partly Cloudy
7:00 PM 55.4 °F - 39.2 °F 54% 30.15 in 30.0 mi Calm Calm - N/A   Clear
8:00 PM 50.0 °F - 39.2 °F 66% 30.15 in 30.0 mi Calm Calm - N/A   Clear
9:00 PM 50.0 °F - 39.2 °F 66% 30.14 in 30.0 mi Calm Calm - N/A   Partly Cloudy
10:00 PM 48.2 °F - 39.2 °F 71% 30.15 in 30.0 mi Calm Calm - N/A   Clear
11:00 PM 47 °F - 39 °F 64% 30.14 in 28 mi Calm Calm - -  
11:00 PM 46.4 °F - 39.2 °F 76% 30.14 in 30.0 mi Calm Calm - N/A   Clear